TimeCDT,TemperatureF,Dew PointF,Humidity,Sea Level PressureIn,VisibilityMPH,Wind Direction,Wind SpeedMPH,Gust SpeedMPH,PrecipitationIn,Events,Conditions,WindDirDegrees,DateUTC
12:52 AM,60.1,51.1,72,29.83,10.0,Calm,Calm,-,N/A,,Clear,0,2013-05-16 05:52:00
1:52 AM,59.0,51.1,75,29.84,10.0,Calm,Calm,-,N/A,,Clear,0,2013-05-16 06:52:00
2:52 AM,55.0,48.0,77,29.87,10.0,NW,3.5,-,N/A,,Clear,310,2013-05-16 07:52:00
3:52 AM,52.0,48.9,89,29.86,10.0,NNE,4.6,-,N/A,,Clear,20,2013-05-16 08:52:00
4:52 AM,53.1,48.0,83,29.87,10.0,Calm,Calm,-,N/A,,Clear,0,2013-05-16 09:52:00
5:52 AM,52.0,48.0,86,29.89,10.0,Calm,Calm,-,N/A,,Clear,0,2013-05-16 10:52:00
6:52 AM,57.9,51.1,78,29.90,10.0,Calm,Calm,-,N/A,,Clear,0,2013-05-16 11:52:00
7:52 AM,66.9,52.0,59,29.91,10.0,North,5.8,-,N/A,,Clear,10,2013-05-16 12:52:00
8:52 AM,72.0,48.9,44,29.94,10.0,Calm,Calm,-,N/A,,Clear,0,2013-05-16 13:52:00
9:52 AM,73.9,48.9,41,29.94,10.0,ESE,3.5,-,N/A,,Clear,110,2013-05-16 14:52:00
10:52 AM,75.9,48.9,38,29.93,10.0,Calm,Calm,-,N/A,,Clear,0,2013-05-16 15:52:00
11:52 AM,78.1,48.0,35,29.92,10.0,Variable,6.9,-,N/A,,Clear,0,2013-05-16 16:52:00
12:52 PM,80.1,45.0,29,29.91,10.0,Calm,Calm,-,N/A,,Clear,0,2013-05-16 17:52:00
1:52 PM,80.1,46.9,31,29.91,10.0,NNE,3.5,-,N/A,,Clear,20,2013-05-16 18:52:00
2:52 PM,81.0,48.0,31,29.89,10.0,SE,12.7,16.1,N/A,,Clear,140,2013-05-16 19:52:00
3:52 PM,81.0,46.0,29,29.88,10.0,SSE,10.4,-,N/A,,Clear,150,2013-05-16 20:52:00
4:52 PM,81.0,43.0,26,29.88,10.0,ESE,8.1,-,N/A,,Clear,120,2013-05-16 21:52:00
5:52 PM,80.1,43.0,27,29.89,10.0,SE,9.2,-,N/A,,Clear,130,2013-05-16 22:52:00
6:52 PM,78.1,41.0,27,29.88,10.0,East,10.4,-,N/A,,Clear,90,2013-05-16 23:52:00
7:52 PM,68.0,46.0,45,29.90,10.0,ENE,13.8,-,N/A,,Clear,70,2013-05-17 00:52:00
8:52 PM,63.0,43.0,48,29.93,10.0,ENE,11.5,-,N/A,,Clear,70,2013-05-17 01:52:00
9:52 PM,59.0,41.0,51,29.96,10.0,NE,5.8,-,N/A,,Partly Cloudy,40,2013-05-17 02:52:00
10:52 PM,57.9,39.9,51,29.97,10.0,ENE,6.9,-,N/A,,Mostly Cloudy,60,2013-05-17 03:52:00
11:52 PM,57.9,39.9,51,29.97,10.0,East,3.5,-,N/A,,Overcast,80,2013-05-17 04:52:00